Home   Weather   Limerick   Past weeks

Flag for Ireland Past Weather in Limerick, Ireland — Yesterday and Last 2 Weeks

Now
54 °F

Partly sunny.


Feels Like: 52 °F
Forecast: 42 / 51 °F
Wind: 6 mph from Southwest

Location: Shannon Airport

Current Time: Apr 28, 2017 at 4:57:21 pm

Latest Report: Apr 28, 2017 at 4:00 pm


Visibility: N/A

Pressure: 29.98 "Hg

Humidity: 51%

Dew Point: 36 °F

Location of LimerickLocation

Past Weather in Limerick — Graph

°F

Limerick Temperature Yesterday

Maximum temperature yesterday: 54 °F (at 1:30 pm)
Minimum temperature yesterday: 39 °F (at 3:30 am)
Average temperature yesterday: 47 °F

High & Low Weather Summary for the Past Weeks

 TemperatureHumidityPressure
High61 °F (Apr 20, 2:00 pm)100% (Apr 13, 11:30 pm)30.66 "Hg (Apr 13, 11:30 pm)
Low32 °F (Apr 26, 4:30 am)44% (Apr 24, 4:30 pm)30.01 "Hg (Apr 14, 4:00 am)
Average49 °F79%30.32 "Hg
* Reported Apr 13 3:00 pm — Apr 28 3:30 pm, Limerick, Weather by CustomWeather, © 2017

Note: Actual official high and low records may vary slightly from our data, if they occured in-between our weather recording intervals... More about our weather records

Advertising

Limerick Weather History for the Previous 24 Hours

Scroll right to see more
 ConditionsComfort  
Time TempWeatherWind HumidityBarometerVisibility
3:30 pm
Fri, Apr 28
54 °FPassing clouds.6 mph54%30.01 "HgN/A
3:00 pm54 °FPartly sunny.7 mph54%30.01 "HgN/A
2:00 pm50 °FPartly sunny.9 mph62%30.04 "HgN/A
1:30 pm50 °FPartly sunny.10 mph67%30.04 "HgN/A
1:00 pm50 °FBroken clouds.7 mph67%30.04 "HgN/A
12:30 pm50 °FBroken clouds.8 mph67%30.04 "HgN/A
12:00 pm50 °FPartly sunny.6 mph67%30.07 "HgN/A
11:30 am48 °FPartly sunny.5 mph76%30.07 "HgN/A
11:00 am48 °FBroken clouds.6 mph71%30.07 "HgN/A
10:30 am48 °FBroken clouds.6 mph71%30.09 "HgN/A
10:00 am46 °FPartly sunny.8 mph76%30.09 "HgN/A
9:30 am46 °FPartly sunny.12 mph82%30.09 "HgN/A
8:30 am48 °FPartly sunny.3 mph71%30.12 "HgN/A
8:00 am46 °FPartly sunny.5 mph76%30.12 "HgN/A
7:30 am46 °FPartly sunny.3 mph76%30.12 "HgN/A
7:00 am46 °FPartly sunny.2 mph82%30.12 "HgN/A
6:30 am46 °FPartly sunny.2 mph82%30.12 "HgN/A
6:00 am46 °FPassing clouds.1 mph82%30.12 "HgN/A
5:30 am46 °FPassing clouds.No wind82%30.12 "HgN/A
5:00 am45 °FPassing clouds.2 mph87%30.15 "HgN/A
4:30 am45 °FPassing clouds.2 mph87%30.15 "HgN/A
4:00 am45 °FOvercast.3 mph87%30.15 "HgN/A
3:30 am46 °FOvercast.3 mph82%30.15 "HgN/A
3:00 am46 °FOvercast.5 mph82%30.15 "HgN/A
2:30 am46 °FOvercast.5 mph82%30.18 "HgN/A
2:00 am46 °FPassing clouds.3 mph82%30.18 "HgN/A
1:30 am46 °FPassing clouds.3 mph82%30.18 "HgN/A
1:00 am46 °FPassing clouds.3 mph76%30.18 "HgN/A
12:30 am46 °FPassing clouds.6 mph76%30.18 "HgN/A
12:00 am46 °FPassing clouds.6 mph76%30.21 "HgN/A
11:30 pm
Thu, Apr 27
48 °FPassing clouds.6 mph71%30.21 "HgN/A
11:00 pm48 °FPassing clouds.6 mph76%30.21 "HgN/A
10:30 pm48 °FPassing clouds.7 mph71%30.21 "HgN/A
10:00 pm48 °FPassing clouds.6 mph76%30.21 "HgN/A
9:30 pm48 °FPassing clouds.7 mph71%30.21 "HgN/A
9:00 pm50 °FPassing clouds.9 mph67%30.21 "HgN/A
8:30 pm50 °FPartly sunny.12 mph67%30.21 "HgN/A
8:00 pm50 °FPartly sunny.3 mph71%30.21 "HgN/A
7:30 pm50 °FPartly sunny.5 mph67%30.21 "HgN/A
7:00 pm50 °FPartly sunny.7 mph67%30.21 "HgN/A
6:30 pm52 °FPartly sunny.9 mph62%30.21 "HgN/A
6:00 pm52 °FPartly sunny.7 mph62%30.21 "HgN/A
5:30 pm50 °FPartly sunny.7 mph71%30.21 "HgN/A
5:00 pm52 °FSprinkles. Partly sunny.10 mph67%30.21 "HgN/A
4:30 pm54 °FPartly sunny.13 mph63%30.21 "HgN/A
4:00 pm52 °FPartly sunny.12 mph67%30.21 "HgN/A
Weather by CustomWeather, © 2017

See weather overviewHow to use our weather pages